星链-34339 (STARLINK-34339)

导读

STARLINK-34339是美国于2025年5月27日发射的星链卫星,隶属于SpaceX公司主导的星链计划。星链计划旨在搭建全球卫星互联网星座,为全球提供低时延、高速的互联网接入服务,该卫星入轨后将进一步扩充星链星座的规模,提升全球网络覆盖能力与服务稳定性。

基本信息
目录编号:
64160
目录名称:
STARLINK-34339
国际标识:
2025-112Q
轨道中心:
EARTH
卫星名称:
星链-34339
卫星全名:
星链-34339 (STARLINK-34339)
卫星状态:
在轨 (已飞行382 天)
发射日期:
2025-05-27 UTC
国别 :
美国 (US)
星等 :
--
轨道信息
数据来源 国际轨道数据 AOE轨道数据
星历时间 2026-06-13T23:06:04+0800
8小时前
查看轨道信息
2026-06-11T00:00:00+0800
3天前
查看轨道信息
半长轴 6927.634km 6927.598km
偏心率 0.0001469 0.0001525
轨道倾角 97.365° 97.378°
近地点辐角 137.579° 124.435°
升交点赤经 215.212° 212.383°
平近点角 222.555° 27.858°
近地点 548.479km 548.404km
远地点 550.515km 550.518km
周期 95.639分钟 95.639分钟
每日圈数 15.056547 15.056665
详细信息
固有亮度:
5
最大亮度:
2.5
卫星平台:
Starlink V1.0
覆盖范围:
全球
运营商:
太空探索技术公司
运营商所在国:
美国
制造商(研发单位):
太空探索技术公司
制造商所在国:
美国
使用方式:
暂无
卫星简介
Starlink 计划是 SpaceX 推出的全球卫星互联网项目,通过发射低轨道卫星,为全球尤其是偏远地区提供高速、低延迟的互联网服务。自 2019 年起,Starlink 已部署数千颗卫星,旨在缩小全球数字鸿沟,推动互联网普及。该项目还为军事、航空等行业提供通信支持,带来广泛经济效益。
2D轨道图
3D轨道图
轨道高度分析图
轨道倾角分析图
轨道综合分析图
查看轨道综合分析图